GFSSGP_850_dewp_021.txt.gz
Dewpoint
15 15 17 16 17 17 18 17 15 14 15 14 13 13 14 15 14 16 15 15 14 14 14 14 14 12 12 11 8 7 9 9 9 8 9 8 7 7 8 8 8 8 9 9 9 9 9 10 12
15 15 16 14 18 18 18 13 15 14 14 14 14 14 14 15 14 15 15 15 15 14 13 13 13 12 11 9 8 8 10 9 8 9 8 7 6 7 8 7 6 8 9 10 9 8 8 8 9
15 14 15 17 17 18 17 14 14 14 14 14 14 13 14 16 15 15 15 16 14 14 14 14 13 11 10 9 7 8 10 9 8 7 6 8 7 8 7 6 6 8 10 10 9 9 7 9 10
17 17 18 18 16 14 13 13 12 14 13 14 14 14 15 15 16 15 16 15 14 13 13 13 12 12 11 9 8 9 9 9 8 7 7 8 8 8 6 9 8 8 11 10 12 8 7 10 10
17 16 18 17 14 11 10 11 11 13 13 13 14 15 15 15 14 15 16 16 16 14 13 12 12 11 11 10 9 9 9 9 8 8 7 8 8 7 8 11 11 10 10 11 12 11 8 10 11
15 15 17 16 11 9 9 10 13 13 14 14 14 15 15 15 15 15 16 16 16 13 13 13 12 12 12 11 10 9 9 8 8 7 8 8 8 7 10 11 10 11 11 11 12 12 10 11 12
14 14 15 13 7 8 11 10 12 12 14 14 15 15 15 15 15 14 14 15 15 13 13 12 12 12 12 12 11 10 9 8 8 7 8 8 9 11 14 13 13 12 12 11 11 10 12 12 13
12 14 16 12 11 6 10 9 11 11 13 14 15 16 15 15 15 15 15 16 15 14 13 13 12 11 11 10 10 9 8 7 7 8 8 10 15 15 16 15 13 12 13 10 11 14 14 14 13
12 15 15 11 10 4 6 9 10 11 13 14 13 15 15 15 15 14 16 16 16 16 13 13 12 10 9 8 8 7 7 7 7 7 10 12 15 14 16 15 14 12 12 13 14 14 14 15 12
12 14 10 7 8 5 6 9 9 10 12 13 14 13 15 16 15 14 15 16 16 15 13 13 11 9 8 7 7 7 7 8 8 10 13 14 15 14 15 15 13 15 15 15 15 14 15 13 13
9 10 8 8 6 6 3 4 6 7 12 12 13 14 15 16 15 14 14 14 16 16 15 15 13 10 9 8 7 7 7 9 10 10 14 15 15 12 14 15 15 14 14 15 15 15 14 14 14
7 5 4 3 6 3 3 3 5 6 10 12 12 12 15 15 15 14 15 14 15 15 15 16 14 12 15 13 13 8 13 13 14 15 14 14 14 15 14 15 14 14 15 14 15 15 14 16 13
3 3 3 2 4 5 3 4 6 7 11 12 12 12 14 15 15 14 13 13 12 14 15 15 14 13 14 15 13 14 15 14 15 15 15 13 14 15 15 15 15 14 14 14 14 13 14 13 13
1 0 -3 1 4 5 5 4 5 8 12 13 13 12 12 11 14 14 14 14 13 14 14 14 14 13 14 15 14 15 16 16 15 15 15 15 14 14 15 15 14 14 15 15 14 14 13 11 12
-2 -1 -3 -3 -3 4 6 10 5 7 11 12 13 13 12 12 11 11 13 14 14 12 15 15 15 14 12 15 15 15 15 14 14 15 15 15 15 14 13 14 14 15 14 14 14 15 13 13 12
-3 -4 -2 -3 -2 1 8 12 6 6 10 11 12 12 13 12 11 11 13 13 13 13 15 15 15 14 13 12 15 14 14 14 14 14 16 15 15 15 14 14 14 16 16 14 14 14 13 13 12
-4 -2 -2 -3 -2 1 6 10 4 5 9 9 11 11 12 12 11 11 11 13 13 13 14 15 15 15 15 12 13 15 15 14 14 15 15 15 16 15 15 12 15 15 16 15 14 14 14 13 12
-2 -2 -3 -2 0 6 8 8 6 5 6 8 9 10 10 11 11 11 11 11 12 13 13 14 15 15 16 15 13 13 13 14 14 14 15 15 15 16 14 15 13 14 16 14 14 14 14 9 11
-4 -4 -2 -3 1 9 9 8 7 5 5 6 9 9 10 10 10 11 11 11 12 13 13 14 14 14 16 16 15 14 14 15 14 14 14 15 15 16 15 14 14 14 14 14 14 13 12 11 11
-5 -4 -3 -3 2 8 11 9 8 5 4 6 7 8 9 10 10 10 11 11 12 12 13 13 14 14 16 16 16 15 14 16 15 14 15 16 15 15 13 14 14 13 14 15 14 13 5 11 11
-5 -4 -3 -1 2 6 11 11 11 5 5 6 6 7 9 9 9 10 10 11 11 12 13 13 14 14 15 16 16 17 16 14 15 15 15 14 14 15 14 14 13 14 15 15 14 10 10 12 11
-3 -5 -4 -3 0 7 8 13 11 7 7 7 6 6 7 9 9 9 11 11 11 12 12 13 13 14 15 16 17 16 14 14 15 16 14 14 14 15 15 14 13 15 16 15 11 8 6 11 12
-6 -5 -4 -3 -1 6 5 7 11 9 9 8 6 6 6 7 8 9 10 11 11 12 12 13 13 14 15 15 15 15 13 14 16 16 15 15 15 16 13 15 14 15 15 13 10 8 3 11 11
-12 -7 -4 -3 -2 4 5 6 9 9 9 7 6 6 6 6 6 7 9 10 11 12 13 13 13 14 15 15 15 15 16 15 15 13 13 13 15 14 14 14 16 14 12 10 7 6 3 5 11
-12 -9 -2 1 1 3 3 6 9 6 5 7 7 6 7 7 6 6 9 11 11 12 13 13 13 14 14 15 15 15 16 16 13 14 15 15 14 14 15 13 14 8 6 -4 6 3 -2 1 4
-11 -11 -6 2 2 2 1 6 6 4 3 6 6 5 6 6 7 7 6 10 11 11 12 13 14 14 14 15 15 14 16 16 14 16 17 14 14 13 10 8 3 3 2 -5 2 2 -1 -2 -2
-8 -10 -12 -7 -3 1 0 -1 -2 4 3 4 4 4 5 4 8 8 7 8 10 11 11 13 14 14 14 15 15 15 14 15 13 15 16 15 14 12 13 13 13 12 5 -5 -0 1 -1 2 9
-10 -10 -9 -10 -5 -0 -1 1 3 2 5 6 5 5 4 4 6 9 8 8 9 10 10 12 13 14 14 15 15 15 12 14 13 13 15 16 16 13 14 14 13 13 12 1 0 2 2 7 10
-7 -9 -10 -10 -8 -3 1 -0 -2 3 6 6 4 3 2 4 5 8 8 8 8 10 11 12 13 14 15 15 15 15 14 12 14 13 13 15 16 14 13 14 13 13 12 7 -1 2 1 6 7
-9 -7 -8 -6 -3 -2 -5 -4 -4 -5 4 4 3 2 1 2 6 8 8 9 10 10 11 11 12 13 14 15 15 14 15 12 11 12 11 12 15 15 14 13 13 13 12 11 1 -0 0 5 10

GFSSGP_850_dewp_024.txt.gz
Dewpoint
15 15 15 16 18 17 18 17 15 14 15 14 14 14 15 15 14 16 15 15 15 15 14 14 14 11 8 7 7 8 8 8 7 7 7 7 8 8 7 7 8 9 9 8 7 8 10 11 12
15 15 16 14 18 18 17 14 16 14 13 14 14 14 15 15 15 15 15 15 15 15 14 14 13 12 9 6 7 8 8 7 8 7 6 6 8 7 6 7 8 9 9 8 8 8 9 9 11
16 13 14 17 17 18 16 13 14 14 14 14 14 14 15 16 14 15 14 14 14 14 14 13 12 11 10 6 7 9 8 8 7 7 7 7 8 6 7 7 8 10 9 10 8 8 9 9 9
16 13 15 19 17 15 14 15 14 14 14 14 14 15 16 15 15 14 14 13 13 13 13 13 11 10 8 7 8 9 8 7 6 6 7 8 8 6 10 9 9 10 11 12 8 8 10 11 10
17 16 17 18 16 12 13 14 14 14 14 15 14 15 15 16 14 14 13 13 13 13 13 12 11 9 8 7 8 9 8 7 7 7 8 8 7 10 11 11 10 10 11 12 12 10 11 11 13
16 15 17 16 13 12 14 14 13 13 14 15 15 15 15 14 14 15 14 13 12 12 12 12 11 10 9 7 8 8 8 8 7 7 8 8 7 11 12 13 12 12 11 12 12 12 12 13 14
13 14 15 14 12 13 14 13 13 14 14 14 14 15 16 16 16 16 15 14 13 12 12 12 11 11 10 8 8 8 8 7 7 8 9 8 11 15 13 13 12 13 11 11 12 13 13 13 14
10 13 15 13 11 13 13 13 14 14 14 14 14 15 16 15 16 16 15 15 13 13 12 12 11 11 11 9 9 9 8 7 7 8 9 13 14 15 14 13 11 12 11 13 14 14 15 14 14
11 13 14 11 10 12 12 13 14 14 14 14 15 14 14 14 15 16 15 15 14 13 12 12 11 11 11 10 10 8 7 7 7 8 9 13 15 14 13 13 13 12 13 14 14 14 14 13 14
12 13 12 8 7 10 10 12 13 14 15 15 15 14 14 14 14 15 16 16 15 13 13 12 11 10 10 9 8 7 6 7 7 9 11 14 14 14 14 14 15 15 14 14 14 15 13 12 13
12 12 9 8 7 9 10 12 13 14 15 15 15 15 15 15 15 15 16 15 15 14 13 12 10 9 8 7 6 6 6 7 9 10 11 13 14 13 14 15 14 15 15 13 14 14 14 13 13
11 10 8 7 7 7 9 12 13 12 12 12 13 15 15 15 15 16 16 15 15 15 13 12 9 7 7 6 6 6 7 10 11 13 12 13 14 15 14 14 14 14 14 14 13 13 13 13 14
5 4 7 7 5 6 6 6 12 12 12 13 14 15 15 15 14 15 14 15 15 14 15 12 11 9 7 7 12 7 12 14 14 14 15 13 14 15 14 15 14 14 14 13 13 13 14 12 12
-1 -0 0 2 4 4 4 5 8 11 12 14 15 16 15 15 13 14 15 15 14 14 14 13 14 12 10 12 12 13 14 14 14 14 15 15 14 14 14 14 13 13 13 14 14 13 13 12 12
-1 -1 -2 -4 -1 5 5 9 12 12 12 13 15 15 16 15 15 13 13 14 15 13 12 13 14 14 11 13 14 14 14 15 14 14 15 15 15 14 14 13 14 14 13 14 13 14 13 13 12
-3 -3 -2 -4 5 6 4 9 12 12 12 12 14 15 15 15 15 14 13 13 13 12 13 14 14 14 12 14 15 15 15 15 15 14 15 15 15 15 15 14 13 13 15 15 14 14 13 13 12
-3 -1 -2 -3 2 7 7 9 7 12 13 12 12 13 14 14 13 14 14 13 13 13 13 14 14 14 13 13 14 14 15 15 14 15 15 15 15 15 15 13 14 14 15 15 13 13 13 13 9
-1 -2 -4 -3 -1 6 8 8 7 12 13 13 13 12 12 11 11 12 13 13 13 13 12 14 15 15 14 13 13 14 14 15 14 14 14 15 15 15 15 15 15 14 15 14 14 14 13 8 10
-3 -3 -3 -4 -4 7 8 7 6 11 12 12 13 13 13 12 11 11 12 12 13 12 13 14 15 15 15 15 13 13 13 14 14 14 15 14 15 15 15 15 13 14 14 14 14 14 11 10 10
-6 -4 -3 -4 -4 7 8 7 5 8 10 11 11 12 12 12 12 11 11 11 13 13 13 14 14 14 15 15 15 15 13 12 13 14 15 14 15 15 15 14 13 14 14 14 13 13 2 10 10
-6 -6 -5 -4 -4 9 8 9 9 6 5 8 10 10 11 11 11 11 11 11 12 13 13 13 13 14 15 15 15 15 15 13 14 15 14 14 15 14 15 15 14 13 13 14 14 12 7 11 11
-3 -7 -7 -5 -2 5 7 10 10 8 6 6 8 9 10 10 10 10 11 11 11 11 12 12 13 13 14 14 15 16 16 15 14 15 14 14 13 14 15 15 14 13 13 14 15 12 8 10 10
-5 -6 -4 -4 -3 -1 1 9 9 9 9 6 6 8 9 10 10 10 10 11 11 11 11 12 12 13 13 14 14 15 16 15 14 13 15 15 15 15 15 15 14 12 14 15 14 6 1 11 11
-7 -9 -6 -3 -3 2 0 6 8 9 8 6 6 7 8 9 9 9 9 10 11 11 11 11 12 13 13 14 14 14 15 15 14 13 16 16 15 15 15 14 10 12 13 14 9 5 4 5 10
-8 -9 -5 -3 -1 1 -1 7 6 6 7 5 6 7 6 8 9 9 10 11 11 11 11 11 12 12 13 13 14 14 14 14 12 13 16 15 14 14 16 14 13 13 12 9 4 2 4 1 8
-8 -10 -6 -2 0 1 -1 5 4 3 5 6 6 6 6 6 8 8 9 9 10 11 11 11 12 12 13 13 14 14 15 14 12 14 15 13 13 14 14 14 14 10 10 6 -5 2 0 -2 2
-6 -9 -11 -7 -3 -1 -0 -1 -1 2 3 6 6 6 6 6 6 7 8 9 9 10 11 11 12 12 13 13 13 14 15 14 11 14 14 14 15 14 14 13 8 5 6 2 -6 -2 -0 -2 -3
-8 -10 -9 -9 -6 -5 -4 -1 0 -0 4 4 6 6 7 6 6 6 7 8 9 9 10 10 11 12 12 13 13 14 14 14 11 14 14 15 15 15 14 11 11 13 9 9 1 -5 -1 -4 0
-4 -6 -9 -10 -9 -7 -3 -5 -6 -3 0 4 7 6 6 7 7 7 6 7 7 8 11 10 11 12 12 12 13 14 14 15 12 11 13 15 15 16 15 15 12 13 13 13 11 2 -3 -3 -1
-6 -6 -8 -7 -6 -6 -9 -7 -6 -5 -4 3 5 5 6 6 6 7 7 7 9 10 11 10 11 11 12 12 13 13 14 15 13 10 11 14 15 15 15 15 13 13 14 13 13 11 0 -2 -2

GFSSGP_850_dewp_030.txt.gz
Dewpoint
15 16 16 15 17 17 18 17 15 15 15 14 13 13 14 15 15 15 15 16 15 15 14 15 13 11 11 9 9 9 8 7 7 7 7 7 7 8 8 8 8 8 9 14 11 12 12 13 12
15 16 16 15 16 17 17 15 15 14 14 14 14 14 15 15 15 15 15 16 15 14 14 14 10 9 6 6 7 8 7 7 6 7 7 7 6 7 8 9 9 8 8 9 10 12 12 13 13
16 16 15 16 16 17 16 15 15 14 14 14 14 15 15 16 15 15 14 14 14 14 14 13 9 9 7 8 9 8 7 6 6 7 7 6 8 7 9 10 11 9 9 10 10 10 12 12 13
14 15 16 17 17 16 15 15 14 14 14 14 14 15 15 15 15 14 14 14 14 14 14 11 9 10 10 10 8 7 7 5 6 7 6 10 10 9 9 11 12 11 9 10 11 11 10 11 13
16 15 17 17 17 14 14 14 14 14 14 14 14 15 16 15 15 14 14 14 14 14 13 12 8 8 8 8 7 7 7 7 7 8 7 11 10 10 11 12 12 12 11 11 11 13 13 13 13
15 15 16 16 15 14 14 14 14 14 15 15 14 15 16 15 14 14 15 14 14 13 11 10 8 7 7 8 7 6 5 6 8 8 8 11 12 12 12 12 11 12 12 12 12 13 14 13 14
14 14 14 15 14 15 15 13 14 14 14 14 14 15 16 15 14 14 14 14 13 13 12 11 8 6 7 7 7 6 6 6 8 7 11 14 13 13 12 12 11 11 12 12 13 13 13 14 13
13 11 13 14 15 14 14 14 14 14 14 14 13 15 16 14 14 14 14 13 13 12 12 11 10 8 6 7 7 7 7 6 8 8 12 14 13 13 12 12 11 12 14 14 14 13 13 13 13
13 12 13 14 13 12 14 14 14 14 14 13 14 13 13 13 13 13 13 13 13 13 11 10 9 8 7 7 7 8 7 7 8 10 14 14 14 14 13 11 11 12 14 14 14 13 13 12 12
13 13 12 9 9 12 13 14 14 14 13 14 14 13 13 13 13 13 13 13 13 12 11 10 9 8 7 7 7 8 7 7 8 9 13 14 14 14 13 13 13 13 14 14 13 13 13 13 13
13 15 11 9 11 11 13 14 14 14 14 14 15 13 13 13 13 13 13 12 12 11 11 11 11 10 8 7 7 8 7 7 8 10 13 14 14 14 14 14 14 14 13 13 14 13 13 13 13
14 12 12 11 8 12 13 13 13 12 12 12 14 11 13 14 15 14 13 12 11 11 11 11 11 10 9 8 8 8 6 7 7 10 12 13 13 14 14 14 14 13 14 13 13 13 12 13 12
14 10 10 9 9 8 12 13 13 14 12 13 13 12 14 15 14 14 13 12 12 11 11 11 11 10 10 9 8 7 6 7 8 11 12 13 13 14 14 14 14 13 13 13 13 13 13 12 11
5 9 8 7 5 5 11 13 13 13 13 13 13 14 14 14 14 14 14 14 13 12 12 11 10 10 9 8 7 6 6 7 9 13 13 13 13 13 14 14 14 13 13 13 13 13 13 11 12
-3 -1 -1 0 1 3 8 13 14 12 13 14 14 15 15 14 14 14 13 13 13 13 13 12 11 9 9 7 5 5 7 10 11 14 15 14 14 14 15 14 14 14 13 12 13 13 13 12 13
-3 -2 -1 -2 -0 -0 10 13 12 12 14 15 14 14 15 14 14 13 12 12 13 14 13 11 11 10 7 6 5 6 10 13 14 14 13 14 14 14 15 14 14 14 14 13 14 14 13 13 13
-3 1 -1 -1 -1 6 9 9 10 12 14 15 15 15 14 15 14 13 13 13 13 13 13 12 11 9 7 6 6 9 12 14 13 14 14 14 14 14 15 15 15 14 14 14 14 14 13 13 11
-0 -1 -2 -2 -1 6 7 8 11 13 14 15 15 15 15 15 13 12 12 13 13 13 13 13 12 9 11 10 8 11 13 14 14 14 14 14 14 14 15 15 15 14 14 15 15 13 13 12 10
-2 -2 -1 -3 -3 6 7 8 13 13 14 14 15 15 15 14 13 13 12 13 13 13 13 13 14 12 13 13 10 13 14 14 14 14 14 14 14 14 15 15 15 15 14 14 14 13 13 12 10
-3 -2 -2 -4 -4 4 4 6 13 13 13 14 15 15 15 14 15 13 13 13 13 13 12 12 12 13 13 13 12 11 13 13 14 15 15 14 14 15 15 15 15 15 14 14 14 12 12 10 10
-2 -1 -2 -2 -5 1 6 7 10 13 12 13 14 14 14 15 15 14 13 13 13 13 13 12 12 12 12 13 14 13 14 14 14 15 15 15 14 14 14 15 16 16 15 13 14 14 13 3 9
-1 -4 -4 -4 -4 -2 4 7 9 11 14 12 12 14 14 14 14 14 13 14 14 13 13 13 13 13 12 13 14 14 14 13 13 13 14 15 14 14 13 14 16 16 15 14 13 14 13 6 9
-1 -5 -5 -5 -5 -4 -0 5 6 8 14 14 12 12 13 13 13 14 12 11 12 14 13 13 13 13 13 12 14 14 14 14 13 14 14 13 14 14 13 14 15 15 15 14 12 13 13 7 9
-4 -5 -5 -4 -3 -0 -2 2 0 11 10 13 12 12 13 12 12 12 11 11 12 13 13 12 13 13 13 13 13 14 14 14 14 14 14 12 13 14 13 14 14 15 15 14 12 13 14 5 8
-4 -3 1 -0 -0 1 -3 -0 -2 3 8 9 11 11 12 12 12 12 12 12 11 11 12 11 12 12 12 13 13 14 14 14 14 14 14 13 13 14 14 14 14 15 15 12 11 13 12 6 1
-3 -3 1 1 0 -0 -3 -0 -2 -4 4 6 7 8 9 10 12 12 12 12 11 9 10 11 11 11 11 12 13 13 13 14 14 14 14 13 12 12 13 14 14 14 15 12 11 11 8 5 4
-4 -2 -5 -4 -4 -3 -2 -3 -4 -2 -1 5 5 6 6 7 10 11 11 11 10 10 9 9 10 10 11 11 12 12 13 13 14 14 14 14 13 12 15 15 14 12 14 14 12 10 6 3 3
-6 -6 -2 -5 -0 -1 -3 -4 -1 1 0 1 6 6 5 5 6 8 10 10 11 10 9 10 10 9 9 9 11 11 12 12 13 13 14 14 13 13 12 15 13 13 14 14 13 10 8 2 2
-4 -6 -6 -5 -4 -1 -2 -3 -5 -3 0 -2 0 4 3 4 5 5 7 8 8 9 10 9 10 10 10 10 10 11 12 12 12 12 13 14 13 12 11 14 12 13 14 15 13 9 9 4 0
-5 -4 -7 -3 -3 -6 -4 -4 -9 -7 -4 -1 -1 -3 -0 -1 -1 3 5 7 8 9 10 9 9 10 9 9 10 10 11 11 12 12 12 13 14 11 12 13 12 13 14 14 10 6 6 8 3

GFSSGP_850_dewp_033.txt.gz
Dewpoint
15 16 16 16 18 17 17 16 14 14 14 14 13 13 14 15 14 16 16 15 15 15 15 15 15 15 14 13 12 12 10 9 7 7 7 7 7 8 9 9 9 13 13 13 13 12 13 12 12
15 16 16 15 17 17 16 15 15 14 14 14 14 14 14 15 16 16 16 16 15 15 14 14 14 13 12 12 11 9 8 7 7 7 7 6 7 8 9 10 10 14 11 12 13 12 12 13 12
15 16 16 16 16 17 15 14 14 14 14 13 14 14 15 15 16 15 16 16 15 14 14 12 12 10 9 9 8 7 7 7 7 7 6 7 7 9 11 11 12 14 13 10 9 11 12 13 13
16 15 17 17 16 14 14 14 14 14 14 14 14 15 16 16 16 15 15 15 15 14 13 10 9 6 7 8 7 7 6 7 7 6 8 9 9 10 11 12 14 13 10 11 11 11 11 13 14
14 16 17 16 15 13 13 13 14 14 14 14 14 15 16 16 15 15 15 15 15 15 13 10 7 6 9 9 7 7 5 7 7 7 10 10 10 11 12 12 13 13 11 11 13 14 14 14 14
17 15 14 14 13 13 13 13 14 14 14 14 14 14 16 15 15 15 15 15 15 15 15 14 10 9 9 7 7 6 6 7 7 9 11 12 12 12 12 12 12 12 12 12 14 14 14 12 13
14 13 12 13 13 14 14 14 14 14 14 13 14 14 16 16 15 15 15 15 15 15 15 15 10 9 8 7 7 6 6 8 8 9 12 13 13 13 12 11 11 12 12 12 13 13 13 13 12
14 11 12 12 13 14 14 13 14 13 14 14 14 15 15 16 15 14 15 15 15 15 14 11 10 8 8 7 7 6 6 8 8 10 14 13 13 12 12 11 11 13 13 13 13 12 12 13 12
14 12 13 11 13 12 14 14 14 14 14 13 14 14 14 16 15 15 15 15 15 14 12 9 7 7 7 7 7 7 7 7 8 12 13 14 14 12 12 11 12 13 14 14 14 12 12 12 12
12 14 12 9 10 8 13 13 14 14 13 13 15 14 14 16 16 15 15 15 15 15 14 12 8 6 6 7 7 8 7 7 8 12 14 14 13 13 13 12 12 14 13 13 13 13 13 13 13
15 14 12 8 9 11 13 13 13 13 13 13 14 15 15 15 15 15 15 15 15 14 13 10 9 9 7 6 7 8 7 7 8 9 13 14 13 14 14 14 14 14 13 14 14 13 13 13 13
15 13 12 11 10 12 13 13 13 13 11 11 14 14 15 15 15 15 14 14 15 14 10 10 9 8 7 6 6 7 7 7 8 9 12 14 14 14 14 14 14 13 13 13 12 13 12 12 12
15 12 10 10 9 8 12 13 13 13 12 13 14 15 15 15 15 15 15 15 13 13 10 10 10 9 8 7 7 7 7 6 7 10 11 13 14 14 13 14 13 13 13 12 13 13 13 12 11
8 11 8 2 4 5 8 9 13 12 13 14 14 14 14 15 15 15 15 14 12 11 10 10 10 10 9 8 8 7 7 6 7 11 12 13 13 13 14 14 14 13 13 13 13 12 13 11 12
-0 -1 -2 -3 -1 1 3 8 12 12 14 14 14 14 14 14 15 15 13 12 10 10 10 10 10 10 10 9 9 8 7 6 8 12 13 13 13 14 14 14 13 14 13 13 12 13 13 12 12
-3 -2 -0 -2 -2 -1 3 3 7 12 13 14 14 14 15 15 15 15 15 15 11 11 11 11 10 10 9 9 8 7 6 7 8 13 14 14 13 14 14 14 15 14 14 13 14 14 14 13 13
-4 -2 0 -1 -3 2 5 3 6 12 13 14 14 14 14 15 15 15 15 13 12 12 11 11 12 10 9 8 7 6 6 8 12 13 14 13 14 14 14 15 15 14 14 14 14 15 13 13 12
-3 -2 -2 -1 -1 4 5 6 8 12 13 14 14 14 14 14 14 15 15 14 13 12 13 13 12 11 10 8 7 5 6 9 13 14 14 14 14 14 14 15 15 15 14 15 15 14 14 12 11
-6 -5 -2 -2 -3 4 4 5 7 12 13 13 14 14 14 14 14 14 15 15 13 12 12 13 12 10 10 8 7 5 8 9 13 13 13 14 14 14 14 15 15 15 15 14 14 13 13 13 9
-5 -5 -3 -2 -4 -2 0 5 6 11 13 13 14 14 14 14 14 14 15 15 14 12 13 13 12 12 9 8 9 7 8 11 13 13 14 14 14 14 14 15 15 15 15 14 14 13 12 13 9
-2 -5 -5 -3 -4 -2 1 1 5 10 11 12 14 13 14 14 14 14 15 15 14 12 12 12 12 12 11 11 12 10 10 11 13 14 14 14 15 14 14 14 14 15 16 15 14 14 14 13 6
-3 -5 -6 -4 -2 0 1 3 6 6 12 12 12 14 14 14 14 14 14 15 14 12 12 12 12 12 13 12 13 13 10 11 12 13 13 14 15 15 14 14 14 15 16 15 15 13 13 13 9
-3 -4 -5 -5 -3 -1 -1 2 2 8 11 12 12 13 13 13 14 14 15 11 13 14 12 12 12 12 12 12 12 13 14 13 13 13 13 13 14 15 15 14 14 14 14 15 15 13 13 13 8
-3 -3 -3 -2 -2 1 -0 0 1 3 6 8 11 11 13 13 13 14 15 14 14 12 12 12 13 13 12 13 12 12 13 14 14 13 13 13 14 14 14 14 13 14 15 15 15 13 13 13 6
-2 -3 -0 0 0 0 -1 1 1 -0 2 1 8 11 12 12 13 13 14 15 13 14 10 11 12 13 13 13 13 13 12 13 14 14 14 14 14 13 13 13 13 14 14 15 15 12 13 13 6
-2 -3 -4 -1 -3 -4 -0 1 -0 -2 -3 1 2 6 10 12 12 13 13 13 12 11 12 11 11 11 12 12 13 13 13 13 13 14 14 14 14 12 12 13 12 12 14 14 15 10 12 11 6
-3 -1 -6 -5 -3 -3 -4 -3 -3 -2 -2 0 3 4 8 10 11 12 13 12 11 11 10 9 9 9 10 10 11 12 13 13 13 13 13 14 14 14 12 13 13 13 14 14 15 11 10 8 5
-4 -5 -2 -3 -2 -1 -3 -1 -3 1 -1 -0 2 2 5 6 9 10 12 12 11 10 10 10 9 6 7 9 9 10 10 12 12 13 13 13 14 14 14 13 12 13 13 13 15 14 11 8 5
-5 -3 -4 -5 -4 -5 -5 -6 -3 -0 4 2 -0 -0 2 4 6 7 9 9 10 12 12 11 10 9 8 7 8 9 10 11 12 12 12 12 13 14 15 14 12 14 12 12 14 15 13 8 6
-5 -4 -3 -2 1 -3 -5 -7 -6 -4 -3 1 -1 -1 1 4 3 5 5 9 11 12 12 11 10 10 9 8 8 8 8 9 10 11 11 12 12 13 14 13 13 11 13 12 13 14 13 7 4

GFSSGP_850_dewp_036.txt.gz
Dewpoint
15 16 17 17 18 16 16 16 13 13 14 13 13 13 13 14 15 17 16 16 14 13 14 15 14 14 13 13 11 9 9 7 7 7 7 8 9 9 9 10 13 13 13 13 12 13 12 12 10
17 17 16 15 17 16 15 13 14 13 13 13 13 13 13 15 15 16 16 16 15 15 15 15 14 13 13 11 11 9 8 7 7 7 7 8 9 9 9 12 14 13 12 13 12 12 13 12 13
18 17 16 15 15 15 14 13 13 13 13 13 14 14 14 16 16 16 16 15 15 16 17 15 14 14 11 11 10 8 7 7 7 7 7 8 9 10 12 14 14 12 10 10 11 12 13 13 13
17 17 16 18 13 13 12 13 13 13 13 13 13 15 15 16 16 16 16 15 16 16 17 15 14 12 10 10 8 7 7 8 7 7 8 8 10 11 13 14 13 10 10 11 12 12 13 14 14
15 14 16 15 12 12 12 12 12 13 13 13 13 15 16 16 16 17 16 16 16 15 16 15 11 10 9 8 7 7 7 7 7 10 10 9 10 11 12 13 13 11 12 14 14 14 13 14 14
17 14 13 11 11 12 12 12 12 12 13 13 13 15 17 16 16 16 16 15 15 15 14 15 7 8 8 7 7 6 7 8 8 11 11 11 12 11 11 12 11 12 13 14 14 14 13 11 12
15 11 11 10 11 11 12 12 12 12 12 12 13 15 16 16 16 16 15 15 15 14 13 14 14 10 9 7 7 6 7 8 9 11 12 12 13 12 11 11 11 11 13 13 14 13 13 13 12
15 10 11 11 11 13 12 12 13 11 12 13 13 14 16 15 16 15 15 15 15 14 13 14 14 15 15 8 7 7 8 8 8 13 12 13 13 12 11 11 12 13 13 13 12 12 13 12 12
14 11 10 9 10 10 12 12 12 12 12 12 13 13 14 15 15 15 15 15 15 14 13 13 14 15 15 15 8 6 7 8 8 13 13 14 16 16 16 13 13 14 14 14 12 13 12 12 11
13 11 9 8 7 8 11 11 12 11 12 12 13 13 15 15 15 15 16 16 15 14 13 13 13 14 15 14 14 15 14 14 15 16 16 17 16 16 16 14 12 13 13 13 13 12 13 16 14
11 10 9 6 7 9 10 11 12 11 11 11 13 14 15 15 15 15 15 15 14 14 13 13 14 15 15 14 15 15 14 15 15 15 16 17 17 17 16 16 16 16 14 16 16 16 14 15 13
13 10 10 7 8 9 11 11 11 11 9 11 13 14 15 15 15 14 14 14 14 14 14 14 15 15 15 15 15 14 14 14 14 15 13 16 16 17 17 16 16 16 16 14 15 14 15 16 14
12 9 8 8 8 7 7 9 9 11 10 10 13 14 14 14 14 14 14 14 14 14 15 15 15 16 16 15 14 14 14 13 13 15 14 16 16 17 17 16 16 16 14 14 15 15 14 15 14
8 9 7 4 3 3 4 7 8 9 11 12 13 14 14 14 14 14 14 14 14 14 14 15 15 16 15 15 15 15 15 14 14 14 15 13 16 16 16 16 16 16 16 17 14 15 14 14 14
6 3 0 1 -1 -0 1 3 5 7 11 13 13 13 13 13 13 14 14 14 14 14 15 15 16 16 13 11 8 14 15 14 14 14 13 12 13 14 14 16 16 16 14 14 16 13 14 14 13
2 -2 1 -0 -2 -2 -1 3 3 7 11 13 13 13 13 13 13 14 14 14 14 14 15 15 15 15 15 15 11 14 15 14 14 14 15 13 13 13 14 17 16 17 15 16 15 15 15 14 13
-2 2 3 1 -2 -1 0 3 4 6 10 12 13 13 13 13 13 13 13 14 14 14 15 15 16 15 16 14 15 14 15 14 14 14 15 14 14 14 14 17 16 15 16 16 16 16 14 13 12
1 0 0 3 0 -1 2 3 1 6 10 11 12 13 13 13 13 13 14 13 14 14 15 16 16 16 16 16 13 15 14 14 13 14 15 14 13 14 14 17 15 16 16 16 16 16 14 12 11
-2 -1 0 -0 -1 -1 1 2 1 6 9 10 12 13 13 13 13 13 14 14 14 15 16 16 16 15 15 14 15 15 14 13 13 14 14 14 13 14 14 17 16 14 16 16 16 15 15 13 11
-3 -3 -1 -1 -2 -2 1 2 1 5 9 10 11 12 12 13 13 13 14 14 14 15 16 17 16 15 12 16 14 14 13 12 13 15 16 12 14 14 14 15 17 17 17 15 16 15 14 13 11
-3 -3 -2 -1 -2 -3 -1 1 1 2 7 8 10 11 11 12 13 13 13 13 14 14 15 16 15 14 12 15 16 15 14 13 14 14 16 16 14 14 14 14 15 17 15 16 16 15 15 13 11
-3 -6 -5 -4 -2 1 -1 4 2 1 4 6 7 10 11 12 12 12 12 13 13 14 15 16 15 13 14 12 15 14 13 13 13 14 15 16 15 15 15 14 14 14 17 17 16 16 15 13 11
-6 -9 -5 -5 -4 -2 -1 2 1 1 2 4 5 8 11 11 12 12 13 12 12 14 15 16 16 12 14 12 13 14 14 14 14 14 15 16 17 15 17 15 14 14 14 15 15 15 13 15 11
-9 -7 -7 -5 -5 -1 -0 1 1 1 3 2 3 6 9 11 11 12 13 12 12 13 15 16 16 11 12 12 12 13 15 15 15 15 16 16 16 16 15 17 14 14 15 15 16 15 13 13 12
-6 -4 -2 -3 -3 -2 -3 -0 1 -1 -1 1 1 3 8 11 11 12 13 13 13 13 14 16 17 13 12 12 12 12 12 13 15 16 17 16 15 15 15 15 13 16 13 14 15 15 14 11 12
-4 -5 -6 -1 -5 -5 -4 -0 -0 -2 -3 -2 -1 -1 5 9 11 11 12 13 14 14 14 14 15 11 12 12 12 12 12 14 16 16 16 17 15 15 16 17 13 13 13 13 14 15 13 13 8
-3 -2 -8 -9 -7 -5 -7 -5 -5 -4 -3 -2 -2 -2 -0 8 10 11 11 12 14 15 15 15 12 8 10 11 12 12 12 13 16 15 15 16 16 16 17 17 13 15 12 12 13 15 13 12 6
-5 -6 -4 -6 -1 -2 -7 -5 -3 -3 -2 -2 -2 -2 -1 3 8 9 11 12 13 14 15 16 10 7 5 8 10 12 12 12 13 13 13 14 16 15 16 17 15 16 15 13 12 16 15 8 5
-5 -4 -5 -7 -6 -4 -4 -7 -7 -4 -2 -2 -2 -2 -1 2 5 8 9 10 11 13 14 15 16 13 10 8 7 8 10 11 11 12 12 12 13 14 14 15 14 16 17 15 11 14 16 10 5
-7 -5 -4 -4 -0 -4 -5 -8 -10 -8 -6 -3 -4 -3 -2 -1 2 4 6 8 10 12 13 13 15 16 15 10 8 6 7 8 9 10 11 12 12 12 13 14 14 14 15 17 12 11 15 13 9